Location: 22
(39.7117°N, 89.5929°W)
Time: 09:23:12
(UTC-05:00)

S-56A Canister/Altair - Pass Details

Date: 07 February 2023
Orbit: 638 x 2493 km, 38.9° (Epoch: 25 March)

Event Time Altitude Azimuth Distance (km) Brightness Sun altitude
Rises 07:23:54 0° 196° (SSW) 3,321 10.9 3.4°
Reaches altitude 10° 07:28:59 10° 154° (SSE) 2,121 10.7 4.3°
Maximum altitude 07:29:40 10° 146° (SE) 2,079 10.9 4.4°
Drops below altitude 10° 07:30:20 10° 137° (SE) 2,076 11.2 4.5°
Sets 07:34:52 0° 94° (E) 2,929 12.1 5.3°
